EW9662 Weather Reports


Display with metric or nautical units.
time (UTC)temp
F
wind
direction
speed
MPH
gust
MPH
rain 1hr
in
rain 24hr
in
rain mn
in
humidity
%
barometer
mb
20260504205010 71 71 4.0 12.0 0.00 0.00 0.00 28 1007.1
20260504204517 71 108 3.0 13.0 0.00 0.00 0.00 28 1007.0
20260504204003 72 69 5.0 14.0 0.00 0.00 0.00 29 1007.0
20260504203503 72 102 4.0 15.0 0.00 0.00 0.00 27 1006.9
20260504203023 72 95 6.0 15.0 0.00 0.00 0.00 28 1006.9
20260504202508 72 91 6.0 16.0 0.00 0.00 0.00 27 1006.9
20260504202006 72 136 4.0 16.0 0.00 0.00 0.00 28 1006.9
20260504201512 72 130 3.0 15.0 0.00 0.00 0.00 28 1006.9
20260504201010 72 99 5.0 15.0 0.00 0.00 0.00 27 1006.9
20260504200513 72 92 7.0 18.0 0.00 0.00 0.00 28 1007.0
20260504200010 72 108 8.0 18.0 0.00 0.00 0.00 27 1007.0
20260504195505 72 344 6.0 16.0 0.00 0.00 0.00 28 1006.9
20260504195008 72 70 3.0 14.0 0.00 0.00 0.00 28 1007.0
20260504194515 72 111 8.0 18.0 0.00 0.00 0.00 27 1007.1
20260504194003 72 84 4.0 18.0 0.00 0.00 0.00 28 1006.9
20260504193507 71 65 6.0 18.0 0.00 0.00 0.00 26 1007.1
20260504193023 72 128 3.0 12.0 0.00 0.00 0.00 27 1007.3
20260504192503 72 124 5.0 19.0 0.00 0.00 0.00 27 1007.0
20260504192008 72 170 4.0 19.0 0.00 0.00 0.00 26 1007.0
20260504191528 72 132 3.0 13.0 0.00 0.00 0.00 26 1007.2
20260504191004 72 44 3.0 11.0 0.00 0.00 0.00 26 1006.9
20260504190505 72 99 4.0 15.0 0.00 0.00 0.00 28 1007.2
20260504190021 71 113 6.0 15.0 0.00 0.00 0.00 25 1007.3
20260504185510 71 84 7.0 13.0 0.00 0.00 0.00 26 1007.3
20260504185003 72 127 5.0 17.0 0.00 0.00 0.00 26 1007.3
20260504184518 71 98 4.0 17.0 0.00 0.00 0.00 27 1007.5
20260504184006 71 128 4.0 12.0 0.00 0.00 0.00 25 1007.5
20260504183503 71 90 3.0 12.0 0.00 0.00 0.00 25 1007.4
20260504183012 71 117 5.0 16.0 0.00 0.00 0.00 26 1007.6
20260504182506 71 150 3.0 20.0 0.00 0.00 0.00 26 1007.7
20260504182007 70 116 7.0 20.0 0.00 0.00 0.00 26 1007.8
20260504181508 71 88 6.0 18.0 0.00 0.00 0.00 26 1007.8
20260504181004 71 117 7.0 17.0 0.00 0.00 0.00 25 1007.8
20260504180508 70 221 4.0 17.0 0.00 0.00 0.00 26 1007.7
20260504180013 70 84 7.0 17.0 0.00 0.00 0.00 26 1007.8
20260504175507 70 137 7.0 17.0 0.00 0.00 0.00 25 1007.9
20260504175005 70 58 8.0 20.0 0.00 0.00 0.00 27 1007.9
20260504174524 69 135 6.0 20.0 0.00 0.00 0.00 27 1007.9
20260504174003 70 54 7.0 20.0 0.00 0.00 0.00 26 1008.0
20260504173506 70 22 6.0 17.0 0.00 0.00 0.00 28 1007.9
20260504173024 70 71 8.0 17.0 0.00 0.00 0.00 27 1008.1
20260504172509 70 75 8.0 15.0 0.00 0.00 0.00 27 1008.0
20260504172006 69 110 7.0 19.0 0.00 0.00 0.00 27 1008.0
20260504171524 68 134 9.0 19.0 0.00 0.00 0.00 27 1008.1
20260504171012 68 101 5.0 21.0 0.00 0.00 0.00 28 1008.3
20260504170504 69 89 10.0 21.0 0.00 0.00 0.00 27 1008.3
20260504151006 65 34 6.0 23.0 0.00 0.00 0.00 34 1009.3
20260504150510 64 80 4.0 23.0 0.00 0.00 0.00 32 1009.5
20260504141013 63 119 3.0 15.0 0.00 0.00 0.00 36 1009.8
20260504140506 62 69 7.0 15.0 0.00 0.00 0.00 35 1009.9
20260504130512 59 148 2.0 12.0 0.00 0.00 0.00 40 1010.7
20260504110506 50 73 3.0 8.0 0.00 0.00 0.00 50 1010.9
20260504100503 46 97 2.0 4.0 0.00 0.00 0.00 55 1010.9
20260504082008 45 97 0.0 1.0 0.00 0.00 0.00 60 1010.9
20260504081518 45 98 0.0 2.0 0.00 0.00 0.00 60 1010.9
20260504081007 45 98 0.0 2.0 0.00 0.00 0.00 59 1010.9
20260504080509 45 94 0.0 2.0 0.00 0.00 0.00 60 1010.9
20260504050509 37 108 0.0 1.0 0.00 0.00 0.00 83 1010.9
20260504050020 36 108 0.0 1.0 0.00 0.00 0.00 84 1010.9
20260504045501 36 108 0.0 1.0 0.00 0.00 0.00 84 1011.0
20260504045003 36 108 0.0 1.0 0.00 0.00 0.00 84 1011.1
20260504044516 35 108 0.0 1.0 0.00 0.00 0.00 84 1011.1
20260504044008 35 108 0.0 1.0 0.00 0.00 0.00 85 1011.1
20260504043503 35 108 0.0 1.0 0.00 0.00 0.00 86 1011.1
20260504043010 34 108 0.0 1.0 0.00 0.00 0.00 85 1011.1
20260504042506 34 120 0.0 1.0 0.00 0.00 0.00 85 1011.0
20260504042004 34 120 0.0 1.0 0.00 0.00 0.00 85 1011.0
20260504041507 34 120 0.0 1.0 0.00 0.00 0.00 84 1011.0
20260504041004 34 119 0.0 1.0 0.00 0.00 0.00 84 1011.0
20260504040506 34 120 0.0 1.0 0.00 0.00 0.00 84 1010.8
20260504040007 34 120 0.0 1.0 0.00 0.00 0.00 83 1010.8
20260504035502 34 120 0.0 1.0 0.00 0.00 0.00 82 1010.7
20260504035004 34 120 0.0 0.0 0.00 0.00 0.00 82 1010.7
20260504034504 34 119 0.0 0.0 0.00 0.00 0.00 82 1010.7
20260504034003 34 120 0.0 1.0 0.00 0.00 0.00 81 1010.6
20260504033503 35 120 0.0 1.0 0.00 0.00 0.00 81 1010.6
20260504033027 35 120 0.0 1.0 0.00 0.00 0.00 80 1010.6
20260504032503 35 121 0.0 1.0 0.00 0.00 0.00 79 1010.4
20260504032003 35 121 0.0 1.0 0.00 0.00 0.00 79 1010.5
20260504031516 35 121 0.0 1.0 0.00 0.00 0.00 78 1010.5
20260504031007 35 121 0.0 1.0 0.00 0.00 0.00 77 1010.6
20260504030503 36 121 0.0 1.0 0.00 0.00 0.00 77 1010.5
20260504030015 36 121 0.0 1.0 0.00 0.00 0.00 77 1010.4
20260504025508 36 121 0.0 1.0 0.00 0.00 0.00 76 1010.4
20260504025003 36 121 0.0 1.0 0.00 0.00 0.00 76 1010.4
20260504024512 36 121 0.0 1.0 0.00 0.00 0.00 75 1010.3
20260504024008 36 121 0.0 0.0 0.00 0.00 0.00 75 1010.3
20260504023507 36 121 0.0 1.0 0.00 0.00 0.00 75 1010.3
20260504023008 36 121 0.0 1.0 0.00 0.00 0.00 74 1010.3
20260504022503 37 121 0.0 0.0 0.00 0.00 0.00 73 1010.2
20260504022007 37 121 0.0 1.0 0.00 0.00 0.00 73 1010.2
20260504021505 37 121 0.0 1.0 0.00 0.00 0.00 73 1010.2
20260504021003 37 121 0.0 1.0 0.00 0.00 0.00 73 1010.2
20260504020506 37 121 0.0 0.0 0.00 0.00 0.00 71 1010.1
20260504020025 38 121 0.0 0.0 0.00 0.00 0.00 71 1010.1
20260504015504 38 121 0.0 0.0 0.00 0.00 0.00 71 1010.0
20260504015004 38 121 0.0 0.0 0.00 0.00 0.00 69 1009.9
20260504014521 38 121 0.0 0.0 0.00 0.00 0.00 69 1010.0
20260504014009 39 121 0.0 0.0 0.00 0.00 0.00 68 1010.0
20260504013504 39 121 0.0 1.0 0.00 0.00 0.00 67 1009.9
20260504013016 39 121 0.0 1.0 0.00 0.00 0.00 66 1009.9
20260504012507 40 121 0.0 1.0 0.00 0.00 0.00 66 1009.9
20260504012003 40 121 0.0 0.0 0.00 0.00 0.00 66 1009.9
20260504011512 40 121 0.0 0.0 0.00 0.00 0.00 64 1009.9
20260504011007 40 121 0.0 0.0 0.00 0.00 0.00 64 1009.9
20260504010512 41 121 0.0 0.0 0.00 0.00 0.00 63 1009.8
20260504010009 41 121 0.0 0.0 0.00 0.00 0.00 63 1009.8
20260504005504 41 121 0.0 0.0 0.00 0.00 0.00 61 1009.6
20260504005009 42 121 0.0 0.0 0.00 0.00 0.00 59 1009.7
20260504004504 42 121 0.0 0.0 0.00 0.00 0.00 60 1009.6
20260504004004 42 121 0.0 0.0 0.00 0.00 0.00 58 1009.5
20260504003508 43 121 0.0 0.0 0.00 0.00 0.00 59 1009.4
20260504003023 43 121 0.0 0.0 0.00 0.00 0.00 59 1009.4
20260504002505 44 121 0.0 0.0 0.00 0.00 0.00 58 1009.4
20260504002005 44 121 0.0 1.0 0.00 0.00 0.00 55 1009.3
20260504001519 45 121 0.0 1.0 0.00 0.00 0.00 53 1009.2
20260504001004 46 121 0.0 0.0 0.00 0.00 0.00 51 1009.2
20260504000505 47 121 0.0 0.0 0.00 0.00 0.00 50 1009.1
20260504000020 47 121 0.0 1.0 0.00 0.00 0.00 47 1009.0
20260503235507 47 121 0.0 2.0 0.00 0.00 0.00 45 1009.0
20260503235004 48 121 0.0 2.0 0.00 0.00 0.00 47 1009.0
20260503234518 48 101 0.0 1.0 0.00 0.00 0.00 46 1009.0
20260503234008 49 121 0.0 1.0 0.00 0.00 0.00 45 1008.8
20260503233507 49 149 0.0 1.0 0.00 0.00 0.00 42 1008.9
20260503233012 49 149 0.0 1.0 0.00 0.00 0.00 42 1008.8
20260503232505 50 149 0.0 1.0 0.00 0.00 0.00 43 1008.7
20260503232009 50 167 0.0 1.0 0.00 0.00 0.00 42 1008.7
20260503231510 50 167 0.0 1.0 0.00 0.00 0.00 41 1008.7
20260503231007 51 138 0.0 2.0 0.00 0.00 0.00 40 1008.6
20260503230505 51 138 0.0 3.0 0.00 0.00 0.00 37 1008.5
20260503230025 51 146 0.0 4.0 0.00 0.00 0.00 39 1008.5
20260503225505 51 150 0.0 4.0 0.00 0.00 0.00 38 1008.4
20260503225009 51 165 1.0 4.0 0.00 0.00 0.00 38 1008.4
20260503224523 51 136 0.0 4.0 0.00 0.00 0.00 38 1008.3
20260503224004 51 153 1.0 4.0 0.00 0.00 0.00 38 1008.3
20260503223506 51 155 0.0 4.0 0.00 0.00 0.00 38 1008.3
20260503223024 51 155 1.0 8.0 0.00 0.00 0.00 37 1008.2
20260503222509 51 102 3.0 8.0 0.00 0.00 0.00 36 1008.2
20260503222006 51 155 3.0 8.0 0.00 0.00 0.00 36 1008.2
20260503221518 51 125 4.0 13.0 0.00 0.00 0.00 35 1008.1
20260503221010 52 217 4.0 13.0 0.00 0.00 0.00 35 1008.1
20260503220503 52 178 2.0 17.0 0.00 0.00 0.00 34 1008.0
20260503220017 52 165 4.0 17.0 0.00 0.00 0.00 34 1008.0
20260503215508 53 138 2.0 18.0 0.00 0.00 0.00 34 1007.9
20260503215012 52 151 5.0 18.0 0.00 0.00 0.00 35 1007.9
20260503214513 53 143 3.0 7.0 0.00 0.00 0.00 34 1007.8
20260503214006 52 195 2.0 7.0 0.00 0.00 0.00 35 1007.8
20260503213511 52 142 3.0 7.0 0.00 0.00 0.00 34 1007.8
20260503213037 52 141 0.0 7.0 0.00 0.00 0.00 38 1007.7
20260503212506 52 132 3.0 9.0 0.00 0.00 0.00 34 1007.6
20260503212007 52 165 1.0 9.0 0.00 0.00 0.00 37 1007.6
20260503211529 52 130 1.0 5.0 0.00 0.00 0.00 35 1007.6
20260503211006 52 116 3.0 10.0 0.00 0.00 0.00 35 1007.5
20260503210508 52 146 1.0 10.0 0.00 0.00 0.00 35 1007.4
20260503210024 52 90 2.0 10.0 0.00 0.00 0.00 35 1007.4
20260503205512 52 167 3.0 11.0 0.00 0.00 0.00 35 1007.5